Regional Weather Roundup
Issued by NWS

Home | Current Version | Previous Version | Graphics & Text | Print | Product List | Glossary On
Versions: 1 2 3 4 5 6 7 8 9 10 11 12 13 14 15 16 17 18 19 20 21 22 23 24 25 26 27 28 29 30 31 32 33 34 35 36 37 38 39 40 41 42 43 44 45 46 47 48 49 50
000
ASUS43 KIND 111609
RWRIN

WEATHER ROUNDUP FOR INDIANA
NATIONAL WEATHER SERVICE INDIANAPOLIS IN
1100 AM EST THU FEB 11 2016

NOTE: "FAIR" INDICATES FEW OR NO CLOUDS BELOW 12,000 FEET WITH NO
SIGNIFICANT WEATHER AND/OR OBSTRUCTIONS TO VISIBILITY.

* - STATION DOES NOT REPORT WEATHER SUCH AS PRECIPITATION OR FOG.

+ - STATION NOT QUALITY CONTROLLED BY THE NATIONAL WEATHER SERVICE.
    USE DATA WITH CAUTION...ESPECIALLY DEWPOINT AND RELATIVE
    HUMIDITY OBSERVATIONS.

INZ001>003-010>013-019-020-111700-
NORTHWEST INDIANA

CITY           SKY/WX    TMP DP  RH WIND       PRES   REMARKS
GARY /AIRPORT/ MOSUNNY   18   5  57 NW10      30.32  WCI   6
KNOX *+        MOSUNNY   18   9  68 W10       30.29R WCI   6
LA PORTE +     LGT SNOW  20  14  79 W12       30.28R WCI   8
MICHIGAN CITY+ FLURRIES  19  12  73 NW6       30.28R WCI  11
MONTICELLO +   SUNNY     18   4  55 NW13      30.30R WCI   5
RENSSELAER +   SUNNY     19   0  42 NW9       30.32R WCI   9
VALPARAISO     LGT SNOW  16   8  71 W12       30.29R WCI   3

$$

LMZ046-743>745-111700-
SOUTHERN LAKE MICHIGAN

STATION/POSITION TIME  TEMP    WIND        PRES    WAVE
                       AIR SEA DIR/SP/G            HT
                 (UTC) (F)     (DEG/KT/KT) (MB)    (FT)
MICHIGAN CITY    1500   19     300/ 12/ 15   N/A

$$

INZ004-005-014>016-021>024-111700-
NORTH CENTRAL INDIANA

CITY           SKY/WX    TMP DP  RH WIND       PRES   REMARKS
ELKHART        CLOUDY    18  10  73 W7        30.25S WCI   8
GOSHEN         CLOUDY    17  11  77 S3        30.25R
LOGANSPORT +   SUNNY     19   5  53 NW6       30.30R WCI  11
PERU/GRISSOM   SUNNY     18   9  68 NW9       30.26S WCI   6
ROCHESTER +    MOSUNNY   19   9  63 W7        30.28R WCI  10
SOUTH BEND     SNOW      17  12  80 W8        30.26R VSB 1/2 WCI   7
WARSAW +       CLOUDY    19  12  73 W6        30.26S WCI  11

$$

INZ006>009-017-018-025>027-111700-
NORTHEAST INDIANA

CITY           SKY/WX    TMP DP  RH WIND       PRES   REMARKS
ANGOLA *+      PTSUNNY   16   7  67 NW6       30.22R WCI   7
AUBURN +       CLOUDY    19   9  63 CALM      30.25R
FORT WAYNE     PTSUNNY   24  11  57 W7        30.27R WCI  16
HUNTINGTON +   PTSUNNY   16   6  63 NW5       30.27S WCI   9

$$

INZ028-029-035-036-043>045-051>053-111700-
WEST CENTRAL INDIANA

CITY           SKY/WX    TMP DP  RH WIND       PRES   REMARKS
GREENCASTLE +  SUNNY     18  -4  38 N5        30.31R WCI  11
LAFAYETTE      SUNNY     19   6  57 N7        30.31S WCI  10
TERRE HAUTE    SUNNY     18   3  52 CALM      30.33R

$$

INZ030>032-037>040-046>048-054>057-064-065-111700-
CENTRAL INDIANA

CITY           SKY/WX    TMP DP  RH WIND       PRES   REMARKS
ANDERSON       SUNNY     18   7  62 NW8       30.28R WCI   7
COLUMBUS       MOSUNNY   19   9  63 N6        30.32R WCI  11
FISHERS *+     SUNNY     18   9  68 CALM      30.30R
FRANKFORT +    SUNNY     20   2  47 NW6       30.30R WCI  12
GREENWOOD *+   SUNNY     19   9  63 CALM      30.30R
INDIANAPOLIS   MOSUNNY   20   5  52 NW7       30.29R WCI  11
-EAGLE CREEK   SUNNY     19   6  57 N5        30.29R WCI  12
KOKOMO *+      SUNNY     18   7  62 NW9       30.28R WCI   6
MARION +       SUNNY     14   1  56 NW7       30.29R WCI   4
MT COMFORT *+  SUNNY     18   5  57 NW3       30.29R
SHELBYVILLE    SUNNY     18   7  62 NW5       30.29R WCI  11
ZIONSVILLE +   SUNNY     17   7  67 CALM      30.29R

$$

INZ033-034-041-042-049-050-058-059-111700-
EAST CENTRAL INDIANA

CITY           SKY/WX    TMP DP  RH WIND       PRES   REMARKS
MUNCIE         CLOUDY    19   8  62 NW10      30.27R WCI   7

$$

INZ060-061-067>069-081>083-085>088-111700-
SOUTHWEST INDIANA

CITY           SKY/WX    TMP DP  RH WIND       PRES   REMARKS
EVANSVILLE     CLOUDY    26  14  60 NE8       30.34R WCI  18
HUNTINGBURG *+ MOSUNNY   23  10  58 NE7       30.32R WCI  15
WASHINGTON +   SUNNY     22   7  52 CALM      30.33R

$$

INZ062-063-066-070>080-084-089>092-111700-
SOUTH CENTRAL AND SOUTHEAST INDIANA

CITY           SKY/WX    TMP DP  RH WIND       PRES   REMARKS
BLOOMINGTON    SUNNY     20   6  55 NE3       30.29R
MADISON *+     SUNNY     21   5  49 N6        30.31R WCI  14
NORTH VERNON + SUNNY     19   5  53 CALM      30.30S
SEYMOUR +      SUNNY     23   7  50 NE3       30.32R

$$




USA.gov is the U.S. government's official web portal to all federal, state and local government web resources and services.